www.pogodaiklimat.ru

Погода и климат >> Архив погоды >> Украина >> Ботиево


ПОГОДА в Ботиево

  • Прогноз погоды в Ботиево
  • Монитор погоды в Ботиево

АРХИВ ПОГОДЫ в Ботиево

Время (UTC), дата Ветер
(напр.,м/с)
 
Видим.   Явления Облачность Т
(С)
Тd
(С)
f
(%)
Тe
(С)
Тes
(С)
Комфортность P
(гПа)
Po
(гПа)
Тmin
(С)
Tmax
(С)
R
(мм)
R24
(мм)
S
(см)
21 16.08 СЗ 1 13 км 10/0
[Ac und]
+23.2 +19.8 81 +30 +30 очень
душно
1008.4 1006.2
00 17.08 С 4 14 км 10/0
[Ac und]
+20.8 +14.9 69 +24 +24 комфорт 1008.3 1006.0
03 17.08 С 1 10 км в посл. час ливневой дождь 10/10 630 м
[Cb cap]
+18.8 +16.8 88 +21 +21 комфорт 1009.0 1006.8
06 17.08 С 3 10 км {ливн. осадки} 10/6 600 м
[Cb cap Cs]
+20.1 +16.6 80 +23 +25 комфорт 1010.1 1007.9 +18.4 0.7
09 17.08 СЗ 3 10 км 10/4 600 м
[Cu med, cong Cs]
+24.0 +14.2 54 +26 +32 жарко 1009.9 1007.7
12 17.08 СЗ 3 10 км 4/4 600 м
[Cu hum]
+23.6 +12.6 50 +26 +31 жарко 1010.3 1008.0
18 17.08 С 2 15 км 3/3 600 м
[Cb cap]
+19.7 +11.0 57 +22 +22 комфорт 1010.8 1008.6 +24.7
21 17.08 СЗ 1 15 км 3/0
[Ci fib]
+16.4 +11.2 71 +17 +17 1011.2 1008.9
00 18.08 СЗ 2 13 км 10/0
[Ci]
+14.9 +11.5 80 +15 +15 1011.5 1009.2
03 18.08 штиль 0 10 км 10/0
[Ci]
+13.0 +11.1 88 +12 +12 1011.6 1009.3
06 18.08 С 3 10 км 10/3 600 м
[Cu med, cong Cs]
+19.2 +13.6 70 +21 +24 комфорт 1012.2 1010.0 +12.9
09 18.08 С 4 10 км 9/9 660 м
[Cb cap]
+20.8 +12.7 60 +23 +24 комфорт 1012.5 1010.3
12 18.08 С 3 10 км 9/4 600 м
[Sc Ac cast Ci fib]
+22.8 +12.7 53 +26 +29 жарко 1012.7 1010.4
15 18.08 С 3 10 км 10/0
[Ac cast Cs]
+23.5 +12.7 51 +26 +26 жарко 1012.9 1010.7
18 18.08 С 3 15 км 9/9 660 м
[Cb cap]
+21.1 +12.2 57 +23 +23 комфорт 1014.3 1012.1 +23.9
21 18.08 С 2 14 км 8/4 600 м
[Cb cap Ac cast Ci fib]
+19.0 +12.8 67 +21 +21 комфорт 1014.7 1012.4
00 19.08 С 2 14 км 10/0
[Cs]
+16.6 +12.6 77 +17 +17 1015.5 1013.2
03 19.08 С 4 10 км 3/1 600 м
[Cb cap Ci]
+16.0 +12.4 79 +15 +15 1015.7 1013.4
06 19.08 С 3 10 км ясно +21.4 +13.8 62 +24 +29 комфорт 1016.8 1014.6 +16.0
09 19.08 СВ 3 10 км 8/3 600 м
[Cu med, cong Cs]
+26.8 +14.3 46 +29 +36 жарко 1016.7 1014.5
12 19.08 С 4 10 км 9/9 660 м
[Cb cap]
+28.7 +13.4 39 +30 +31 жарко 1016.4 1014.2
15 19.08 СВ 2 10 км 8/8 700 м
[Cb cap]
+28.5 +12.9 38 +30 +30 жарко 1016.5 1014.3
18 19.08 ЮВ 2 14 км ясно +22.8 +17.7 73 +28 +28 душно 1018.0 1015.8 +29.2
21 19.08 С 1 14 км ясно +19.5 +16.2 81 +23 +23 комфорт 1018.4 1016.1
00 20.08 С 2 13 км ясно +19.7 +15.3 76 +22 +22 комфорт 1018.1 1015.8
03 20.08 СВ 2 10 км 9/9 720 м
[Sc]
+20.1 +15.2 73 +23 +23 комфорт 1018.8 1016.5
06 20.08 СВ 4 10 км 4/1 600 м
[Cu hum Ac trans Ci fib]
+25.7 +18.0 62 +30 +33 душно 1019.6 1017.4 +18.8
09 20.08 СВ 3 10 км 3/3 600 м
[Cu hum]
+30.7 +18.0 47 +35 +44 очень
душно
1019.1 1016.9
12 20.08 Ю 3 10 км 3/3 600 м
[Cu hum]
+29.9 +17.5 47 +34 +40 очень
душно
1018.0 1015.8
15 20.08 СВ 4 10 км ясно +31.5 +17.3 43 +35 +36 очень
душно
1017.8 1015.6
18 20.08 СВ 2 13 км 3/0
[Ci]
+26.8 +14.7 47 +29 +29 жарко 1018.5 1016.3 +32.0
21 20.08 С 2 14 км 4/0
[Ci]
+24.6 +14.5 53 +27 +27 жарко 1018.9 1016.7
00 21.08 СВ 1 14 км 4/0
[Ci]
+22.7 +15.4 63 +27 +27 душно 1018.4 1016.1
03 21.08 С 2 10 км 8/3 600 м
[Cb cap Cs]
+21.9 +15.2 66 +25 +25 комфорт 1017.5 1015.3
06 21.08 СВ 6 10 км 8/0
[Ac cast Ci]
+27.9 +15.9 48 +31 +33 душно 1017.0 1014.8 +21.5
09 21.08 СВ 6 10 км 10/5 600 м
[Sc Ac cast Ci fib]
+31.5 +15.9 39 +34 +36 душно 1016.0 1013.8
12 21.08 ЮВ 4 10 км 3/0
[Ci fib]
+32.9 +17.5 40 +37 +43 очень
душно
1014.6 1012.4
15 21.08 штиль 0 10 км 8/1 600 м
[Cb cap Ac cast Ci]
+31.8 +18.2 44 +36 +37 очень
душно
1014.1 1011.9
18 21.08 СВ 3 15 км 1/0
[Ac cast]
+28.9 +15.9 45 +32 +32 душно 1014.8 1012.6 +35.4
00 22.08 С 3 14 км 3/0
[Ci fib]
+23.6 +13.5 53 +26 +26 жарко 1014.1 1011.8
06 22.08 СВ 4 10 км 8/3 600 м
[Cb cap Cs]
+27.2 +15.6 49 +30 +33 душно 1013.7 1011.5 +21.9
12 22.08 Ю 3 10 км 10/0
[Cs]
+31.8 +15.9 38 +34 +41 душно 1013.8 1011.6
18 22.08 СВ 3 16 км 10/0
[Cs]
+28.8 +14.7 42 +31 +31 жарко 1015.1 1012.9 +35.4
00 23.08 С 4 15 км ясно +23.5 +12.7 51 +26 +26 жарко 1015.6 1013.3
06 23.08 СВ 3 10 км 3/0
[Ci fib]
+28.5 +16.7 49 +32 +37 душно 1016.2 1014.0 +22.9
12 23.08 С 6 10 км 3/0
[Ci fib]
+36.0 +18.4 36 +40 +44 очень
душно
1015.2 1013.0

 

Местоположение метеостанции Ботиево (Запорожская область, Украина): широта 46.68 долгота 35.85 высота над уровнем моря 19 м.

В архиве по умолчанию представлена погода в Ботиево за последнюю неделю. Архивные данные за месяц целиком и за предыдущие месяцы, начиная с января 2011 года, Вы можете получить, выбрав интересующий диапазон дат из раскрывающегося списка и нажав кнопку "Ввод!".


*Определитесь, кто Вы:
робот инопланетянин человек

Внимание! Время в таблицах - всемирное. Для получения местного времени необходимо прибавить поправку, которая равна 2 ч.

Смотрите также архив погоды в соседних городах и на ближайших метеорологических станциях:

Погода в Мелитополе (Запорожская область, Украина) (40 км)
Погода в Бердянске (Запорожская область, Украина) (71 км)
Погода в Пришибе (Запорожская область, Украина) (77 км)
Погода в Кирилловке (Запорожская область, Украина) (81 км)
Погода в Геническе (Херсонская область, Украина) (97 км)
Погода в Нижних Серогозах (Херсонская область, Украина) (112 км)
Погода в Гуляйполе (Запорожская область, Украина) (114 км)
Погода в Мариуполе (Донецкая область, Украина) (131 км)
Погода в Мысовом (Крым, Россия) (137 км)
Погода в Запорожье (Запорожская область, Украина) (139 км)

Пояснения к столбцам:

Ветер - указаны скорость ветра в м/с - средняя за 10 мин, порывы в срок и между сроками (в фигурных скобках) и направление, откуда дует ветер: С - северный, СВ - северо-восточный, В - восточный, ЮВ - юго-восточный, Ю - южный, ЮЗ - юго-западный, З - западный, СЗ - северо-западный.
Видимость - горизонтальная дальность видимости в метрах или километрах. При видимости от 1 до 10 км при отсутствии осадков обычно наблюдается дымка, при ухудшении видимости до 1 км и менее - туман. В сухую погоду видимость может ухудшаться дымом, пылью или мглою.
Явления - указаны атмосферные явления, наблюдавшиеся в срок или в последний час перед сроком; фигурными скобками обозначены явления, наблюдавшиеся между сроками (за 1-3 часа до срока); квадратными скобками обозначены град или гололедные отложения с указанием их диаметра в мм.
Облачность - указаны через наклонную черту общая и нижняя облачность в баллах и высота нижней границы облаков в метрах; квадратными скобками обозначены формы облаков: Ci - перистые, Cs - перисто-слоистые, Cc - перисто-кучевые, Ac - высококучевые, As - высокослоистые, Sc - слоисто-кучевые, Ns - слоисто-дождевые, Cu - кучевые, Cb - кучево-дождевые. Подробнее классификацию облаков см. в Атласе облаков (PDF).
T - Температура воздуха - температура, измеренная на высоте 2 м над землей.
Td - Температура точки росы - температура, при понижении до которой содержащийся в воздухе водяной пар достигнет насыщения.
f - Относительная влажность воздуха - влажноcть воздуха, измеренная на высоте 2 м над землей.
Te - Эффективная температура - температура, которую ощущает одетый по сезону человек в тени. Характеристика душности погоды. При расчете учитывается влияние влажности воздуха и скорости ветра на теплоощущения человека.
Tes - Эффективная температура на солнце - температура, которую ощущает человек, с поправкой на солнечный нагрев. Характеристика знойности погоды. Зависит от высоты солнца над горизонтом, облачности и скорости ветра. Ночью, в пасмурную погоду, а также при ветре 12 м/с и более поправка равна нулю.
P - Атмосферное давление - приведенное к уровню моря атмосферное давление.
Po - Атмосферное давление - измеренное на уровне метеостанции атмосферное давление.
Tmin - Минимальная температура - минимум температуры воздуха на высоте 2 м над землей.
Tmax - Максимальная температура - максимум температуры воздуха на высоте 2 м над землей.
R - Количество осадков - Количество выпавших осадков за период времени, мм. При наведении курсора мыши на число - период времени, за который выпало указанное количество осадков.
R24 - Количество осадков - Количество выпавших осадков за 24 часа, мм.
S - Снежный покров - Высота снежного покрова, см. При наведении курсора мыши на число - состояние снежного покрова и степень покрытия местности в баллах.